Regional Weather Roundup
Issued by NWS New Orleans/Baton Rouge, LA

Home | Current Version | Previous Version | Graphics & Text | Print | Product List | Glossary On
Versions: 1 2 3 4 5 6 7 8 9 10 11 12 13 14 15 16 17 18 19 20 21 22 23 24 25 26 27 28 29 30 31 32 33 34 35 36 37 38 39 40 41 42 43 44 45 46 47 48 49 50
119
ASUS44 KLIX 191610
RWRLIX
NEW ORLEANS REGIONAL WEATHER ROUNDUP
NATIONAL WEATHER SERVICE NEW ORLEANS LA
1100 AM CDT FRI SEP 19 2014

NOTE: "FAIR" INDICATES FEW OR NO CLOUDS BELOW 12,000 FEET WITH NO
      SIGNIFICANT WEATHER AND/OR OBSTRUCTIONS TO VISIBILITY.
      SKY/WX - SKY CONDITION AND SIGNIFICANT WEATHER.
      TMP - AIR TEMPERATURE.     DP    - DEWPOINT TEMPERATURE.
      RH  - RELATIVE HUMIDITY.   PRES  - PRESSURE.
      HI  - HEAT INDEX.          WCI   - WIND CHILL INDEX.

*  THESE STATIONS ARE NOT NWS OR FAA STATIONS AND ARE NOT UNDER
   NWS QUALITY CONTROL.

LAZ038-040-048-061>063-065>067-069-191700-
SOUTHEAST LOUISIANA

CITY           SKY/WX    TMP DP  RH WIND       PRES   REMARKS
N.O. AUDUBON     N/A     84  70  61 MISG        N/A
N.O. INTL ARPT PTSUNNY   84  67  56 E10       29.97R
N.O. LAKEFRONT PTSUNNY   82  69  64 E14       29.97S
N.O. DOWNTOWN*   N/A     82  66  57 NE12G17   29.97S
SLIDELL        PTSUNNY   80  71  74 NE7       29.98R
BATON ROUGE    PTSUNNY   81  72  74 E6        29.98R
BOOTHVILLE     CLOUDY    80  70  71 E10       29.96R
BELLE CHASSE   PTSUNNY   83  69  62 NE12      29.96S
BOGALUSA*        N/A     84  67  57 CALM      30.00F
GALLIANO*      NOT AVBL
NEW ROADS*       N/A     80  71  73 SE6       29.99R
GONZALES*      PTSUNNY   82  73  74 E8        29.97R
HAMMOND*       PTSUNNY   82  68  61 E7        30.00S
HOUMA*         MOSUNNY   84  54  34 E6        29.96R
PORT FOURCHON* CLOUDY    81  72  74 E13G18    29.97R

$$

MSZ070-080>082-191700-
SOUTHERN MISSISSIPPI

CITY           SKY/WX    TMP DP  RH WIND       PRES   REMARKS
MCCOMB         MOSUNNY   80  68  66 VRB5      30.01R
GULFPORT       PTSUNNY   80  71  74 NE6       29.98R
BILOXI         PTSUNNY   79  72  78 E5        29.99R
PASCAGOULA     PTSUNNY   80  71  74 E5        29.99R
STENNIS ARPT*  MOSUNNY   79  70  73 CALM      29.99R

$$

COASTAL OBSERVATIONS
LAKE AND NEARSHORE STATIONS

STATION/POSITION TIME  TEMP    WIND        PRES    WAVE
                       AIR SEA DIR/SP/G            HT/PER
                 (UTC) (F)     (DEG/KT/KT) (MB)    (FT/S)
PASCAGOULA       1600   81      60/  6/ 10 1014.8
WAVELAND YACHT   1600   80      60/  5/  8 1014.5
GRAND ISLE       1600   80 84  110/  9/ 17 1014.6
SOUTHWEST PASS   1600   80 89  110/ 25/ 29 1013.9
NEW CANAL        1600   80 81   70/ 14/ 15 1015.1
SHELL BEACH      1600   80 79  100/ 11/ 13 1014.6

OFFSHORE STATIONS

STATION/POSITION TIME  TEMP    WIND        PRES    WAVE
                       AIR SEA DIR/SP/G            HT/PER
                 (UTC) (F)     (DEG/KT/KT) (MB)    (FT/S)
64 S DAUPHIN ISL 1500   74 84  120/ 21/ 25 1014.7    4/ 5

$$




USA.gov is the U.S. government's official web portal to all federal, state and local government web resources and services.